星链-2252 (STARLINK-2252 )

导读 | 豆包AI

STARLINK-2252是美国太空探索技术公司(SpaceX)星链星座中的一颗卫星,于2021年5月15日发射入轨。星链项目旨在构建全球卫星互联网星座,为全球提供高速宽带互联网服务,该卫星承担着拓展星座网络覆盖、提升服务容量的任务,是星链大规模组网建设过程中的组成单元。

Basic Information
目录编号:
48595
目录名称:
STARLINK-2252
国际标识:
2021-041AU
轨道中心:
EARTH
卫星名称:
星链-2252
卫星全名:
星链-2252 (STARLINK-2252 )
卫星状态:
在轨 (已飞行1764 天)
发射日期:
2021-05-15 UTC
国别 :
美国 (US)
星等 :
--
Orbit Information
数据来源 国际轨道数据 AOE轨道数据
星历时间 2026-03-14T14:40:03+0800
11小时前
查看轨道信息
2026-03-14T06:00:00+0800
20小时前
查看轨道信息
半长轴 6925.364km 6925.368km
偏心率 0.0001428 0.0001439
轨道倾角 53.056° 53.055°
近地点辐角 106.764° 72.783°
升交点赤经 121.019° 122.647°
平近点角 253.351° 127.710°
近地点 546.238km 546.234km
远地点 548.216km 548.228km
周期 95.592分钟 95.593分钟
每日圈数 15.063952 15.063937
Detailed Information
固有亮度:
5
最大亮度:
2.5
卫星平台:
Starlink V1.0
覆盖范围:
全球
运营商:
太空探索技术公司
运营商所在国:
美国
制造商(研发单位):
太空探索技术公司
制造商所在国:
美国
使用方式:
暂无
Satellite Introduction
星链(Starlink)计划是由太空探索技术公司(SpaceX)提出的一个巨型低轨卫星互联网星座项目,计划在2019年至2024年间在太空搭建由约1.2万颗卫星组成的“星链”网络,其中1584颗将部署在地球上空550千米处的近地轨道,并从2020年开始工作。该卫星仍在工作。
2D Orbit Map
3D Orbit Map
Orbit Altitude Analysis Chart
Orbit Inclination Analysis Chart
Orbit Comprehensive Analysis Chart
View Comprehensive Chart